Content
SEND FEEDBACK

Daily
Averages
Monthly
Summary
United States of America

ALBANY, NEW YORK


Home > North America > United States > New York
Elevation: 275 feet     Latitude: 42 45N     Longitude: 073 48W

WEATHER
 
SELECT A DAY
Number of Records: 204,323;   Date Range: 1/1/95 - 4/15/14
 
SHARE

PRINT THIS DATA

[ ← Previous Day ]
WEATHER ALMANAC - FEBRUARY 11, 2013
[ Next Day → ]
[ °C ]   °F
Weather ElementAverageHighLow
Temperature33.6 °F39.2 °F (4:07 pm)16 °F (1:51 am)
Dewpoint28 °F36 °F (4:51 pm)6.1 °F (1:51 am)
Humidity80.6 %93 % (9:04 am)55 % (4:43 am)
Barometer29.89 in30.22 in (1:51 am)29.66 in (5:51 pm)
Wind Speed11.9 mph19.6 mph (6:51 am)
Wind Gust26.5 mph (6:51 am)
Weather ElementAverage
Visibility9.5 mi
Wind DirectionSSE (167.2 °)

Weather ElementTotal
Precipitation0.03 in
Heating Degree Days37.4 (Base 65)
Averaged from 36 records on February 11, 2013
WEATHER CONDITIONS BREAKOUT
WIND DIRECTION BREAKOUT
WEATHER BY HOUR - FEBRUARY 11, 2013
[ °C ]   °F
Local TimeTemperatureDewpointHumidityBarometerVisibilityWind DirectionWind SpeedGust SpeedPrecipitationEventsConditions
1:51 AM16.0 °F6.1 °F65 %30.22 in10.0 miCalmOvercast
2:51 AM17.1 °F9.0 °F71 %30.20 in10.0 miCalmOvercast
3:51 AM19.9 °F10.9 °F68 %30.14 in10.0 miCalmOvercast
4:43 AM30.2 °F15.8 °F55 %30.12 in10.0 miSouth (170°)11.5 mph21.9 mph0.00 inRainLight Freezing Rain
4:51 AM30.9 °F17.1 °F57 %30.14 in10.0 miSouth (180°)12.7 mph18.4 mph0.00 inRainLight Freezing Rain
5:05 AM30.2 °F17.6 °F60 %30.11 in10.0 miSSE (160°)9.2 mph0.00 inRainLight Freezing Rain
5:12 AM30.2 °F17.6 °F60 %30.11 in10.0 miSouth (180°)13.8 mph21.9 mph0.00 inOvercast
5:51 AM32.0 °F18.0 °F56 %30.08 in10.0 miSouth (180°)15.0 mph24.2 mph0.00 inOvercast
6:51 AM33.1 °F21.9 °F64 %30.05 in10.0 miSouth (170°)19.6 mph26.5 mphOvercast
6:54 AM33.8 °F23.0 °F65 %30.04 in10.0 miSouth (170°)17.3 mph26.5 mph0.00 inLight Ice Pellets
7:39 AM33.8 °F28.4 °F81 %30.02 in10.0 miSouth (170°)15.0 mph25.3 mph0.00 inRainLight Ice Pellets
7:48 AM33.8 °F28.4 °F81 %30.02 in10.0 miSouth (170°)16.1 mph24.2 mph0.01 inOvercast
7:51 AM33.1 °F28.0 °F82 %30.03 in10.0 miSouth (170°)11.5 mph24.2 mph0.01 inOvercast
8:48 AM32.0 °F28.4 °F87 %29.99 in10.0 miSouth (180°)15.0 mph21.9 mph0.00 inRainLight Freezing Rain
8:51 AM32.0 °F28.9 °F88 %30.00 in9.0 miSouth (170°)11.5 mph21.9 mph0.00 inRainLight Freezing Rain
9:04 AM32.0 °F30.2 °F93 %29.97 in10.0 miSouth (170°)10.4 mph0.00 inRainLight Freezing Rain
9:19 AM32.0 °F30.2 °F93 %29.96 in10.0 miSouth (180°)13.8 mph21.9 mph0.00 inOvercast
9:51 AM34.0 °F30.9 °F89 %29.94 in10.0 miSouth (170°)18.4 mph26.5 mph0.00 inRainLight Rain
10:51 AM35.1 °F32.0 °F89 %29.88 in10.0 miSouth (170°)18.4 mph26.5 mph0.00 inOvercast
11:51 AM36.0 °F33.1 °F89 %29.86 in10.0 miSouth (170°)15.0 mph23.0 mphOvercast
12:51 PM37.0 °F33.1 °F86 %29.81 in10.0 miSSE (160°)12.7 mph23.0 mphOvercast
1:51 PM37.9 °F34.0 °F86 %29.76 in10.0 miSouth (170°)11.5 mph19.6 mphOvercast
2:51 PM37.9 °F35.1 °F89 %29.73 in10.0 miSSE (160°)12.7 mph19.6 mphOvercast
3:51 PM37.9 °F35.1 °F89 %29.72 in10.0 miSouth (180°)18.4 mph24.2 mphMostly Cloudy
4:07 PM39.2 °F35.6 °F87 %29.69 in10.0 miSouth (170°)13.8 mph24.2 mphMostly Cloudy
4:37 PM39.2 °F35.6 °F87 %29.68 in10.0 miSouth (180°)10.4 mphMostly Cloudy
4:51 PM39.0 °F36.0 °F89 %29.68 in10.0 miSouth (180°)12.7 mphMostly Cloudy
5:51 PM37.9 °F36.0 °F93 %29.66 in8.0 miSouth (170°)15.0 mph20.7 mphOvercast
6:51 PM37.9 °F36.0 °F93 %29.67 in8.0 miSouth (190°)12.7 mphOvercast
7:39 PM37.4 °F35.6 °F93 %29.66 in7.0 miSouth (180°)6.9 mphOvercast
7:51 PM37.9 °F36.0 °F93 %29.68 in5.0 miSouth (180°)6.9 mphOvercast
8:51 PM37.9 °F35.1 °F89 %29.72 in6.0 miWNW (300°)9.2 mph16.1 mph0.01 inRainLight Rain
9:10 PM37.4 °F33.8 °F87 %29.72 in10.0 miNW (310°)12.7 mph0.00 inOvercast
9:51 PM37.0 °F32.0 °F82 %29.72 in10.0 miWNW (290°)19.6 mph24.2 mph0.00 inOvercast
10:51 PM36.0 °F30.9 °F82 %29.70 in10.0 miWest (270°)9.2 mph0.00 inOvercast
11:51 PM35.1 °F30.9 °F85 %29.71 in10.0 miCalmOvercast
Hourly data recorded from KALB, located 0.58 miles away from Albany, New York







STORIES FROM OUR PARTNERS